[[{"header":{"parameterUnit":"m.s-1","parameterCategory":1,"la1":30.2991,"la2":30.254,"lo1":-89.0895,"lo2":-89.0444,"dy":0.0017,"dx":0.0017,"nx":28,"ny":28,"refTime":"2025-12-30T03:00:00:Z","depth":0,"parameterNumber":2,"parameterNumberName":"U-component_of_WINDS"},"data":[0,0,0,0,0,0,0,0,0,0,0,0,0,0,0,0,0,0,0,0,0,0,0,0,0,0,0,0,0,0,0,0,0,0,0,0,0,0,0,0,0,0,0,0,0,0,0,0,0,0,0,0,0,0,0,0,0,0,1.4755,1.4754,0,1.4733,1.4733,1.4732,1.4708,1.4708,1.4707,1.4707,1.4683,1.4683,1.4683,0,0,0,0,0,0,0,0,0,0,0,0,0,1.4775,1.4775,1.4755,1.4754,1.4754,1.4733,1.4733,1.4732,1.4708,1.4708,1.4707,1.4707,1.4683,1.4683,1.4683,0,0,0,0,0,0,0,0,0,0,0,0,0,1.4761,1.4775,1.4755,1.474,1.4738,1.4733,1.4733,1.4732,1.4708,1.4708,1.4707,1.4707,1.4683,1.4683,1.4683,1.469,0,0,1.4681,1.4681,0,0,0,0,0,0,0,0,1.4762,1.476,1.4742,1.4741,1.4739,1.4723,1.4731,1.4718,1.4708,1.4719,1.4707,1.4706,1.4697,1.4695,1.4692,1.4689,1.4688,1.4681,1.4681,1.4681,1.468,0,0,0,0,0,0,0,1.4763,1.4761,1.4746,1.4742,1.474,1.4734,1.4731,1.4729,1.4711,1.4718,1.4717,1.4714,1.4696,1.4693,1.4691,1.4688,1.4681,1.4681,1.468,1.468,1.4691,1.4692,0,0,0,0,0,0,1.4766,1.4762,1.4747,1.4745,1.4749,1.4734,1.4731,1.4728,1.4711,1.4708,1.4715,1.4713,1.4694,1.4692,1.469,1.4699,1.4681,1.468,1.468,1.4691,1.4691,1.4692,0,0,0,0,0,0,1.4767,1.4765,1.4748,1.4753,1.4751,1.4734,1.4731,1.4728,1.4725,1.4709,1.4705,1.4715,1.4693,1.4691,1.4691,1.4697,1.468,1.468,1.469,1.4691,1.4692,1.4715,0,0,0,0,0,0,1.4767,1.4765,1.4768,1.4754,1.475,1.4748,1.4732,1.4728,1.4724,1.4722,1.4708,1.4705,1.4693,1.4692,1.469,1.4696,1.4679,1.4689,1.469,1.4691,1.4714,1.4717,1.4719,0,0,0,0,0,1.4768,1.4775,1.4768,1.4767,1.4753,1.4749,1.4747,1.4733,1.4725,1.4728,1.4717,1.4705,1.4697,1.4692,1.469,1.4696,1.4689,1.469,1.4691,1.4712,1.4716,1.4719,0,0,0,0,0,0,1.479,1.4773,1.4765,1.4768,1.476,1.4745,1.4747,1.4737,1.4731,1.473,1.4712,1.4709,1.4711,1.4704,1.4698,1.4703,1.4691,1.4692,1.4708,1.4711,1.4714,1.4715,1.4679,0,0,0,0,0,1.4795,1.4793,1.4778,1.4782,1.4779,1.4764,1.4761,1.4752,1.4743,1.4739,1.4729,1.472,1.4716,1.4713,1.4708,1.4713,1.4709,1.4717,1.4719,1.4722,1.4722,1.4725,1.4727,1.4696,1.4696,1.4696,0,0,1.4806,1.4796,1.4796,1.4786,1.4779,1.4777,1.4761,1.476,1.4758,1.4739,1.4738,1.473,1.472,1.4722,1.4723,1.4716,1.4731,1.4723,1.4725,1.4725,1.4726,1.4729,1.4732,1.4697,1.4697,1.4697,0,0,1.4824,1.4816,1.4819,1.4812,1.4802,1.4793,1.4794,1.478,1.4774,1.4774,1.4759,1.4758,1.475,1.4744,1.4739,1.4757,1.4746,1.4756,1.477,1.4772,1.4775,1.4777,1.4783,1.4785,1.4757,1.4757,1.4757,0,1.4837,1.4834,1.4821,1.4821,1.4817,1.4801,1.4803,1.4797,1.4786,1.4784,1.4777,1.4768,1.476,1.4761,1.4766,1.4763,1.4763,1.4757,1.4776,1.4777,1.4779,1.4785,1.4787,1.4758,1.4758,1.4758,1.4758,0,1.4852,1.485,1.4853,1.4843,1.484,1.4841,1.4828,1.4827,1.4818,1.4809,1.4809,1.4799,1.4792,1.4792,1.4783,1.4792,1.4788,1.4779,1.4766,1.4784,1.4788,1.479,1.476,1.476,1.4759,1.4759,0,0,1.4881,1.4865,1.4866,1.4862,1.4851,1.4849,1.485,1.4844,1.4843,1.4836,1.4836,1.4831,1.4823,1.4818,1.4809,1.4811,1.4826,1.4801,1.4801,1.4806,1.4835,1.4841,1.4843,1.4819,1.4819,1.4819,1.4835,0,1.4896,1.4896,1.4885,1.4888,1.4886,1.4872,1.4873,1.4866,1.4858,1.4856,1.4847,1.4844,1.4834,1.4831,1.4833,1.4823,1.4831,1.4822,1.4818,1.4818,1.482,1.4846,1.4852,1.4868,1.4837,1.4837,1.4838,0,1.4913,1.4908,1.4911,1.4901,1.49,1.49,1.4894,1.4892,1.4885,1.4879,1.4875,1.4865,1.4865,1.4854,1.4854,1.4848,1.4846,1.4842,1.4842,1.484,1.4828,1.4844,1.4872,1.4874,1.4841,1.484,1.484,0,1.4933,1.4927,1.4929,1.4926,1.4914,1.4914,1.4909,1.4901,1.4899,1.4894,1.4892,1.4887,1.4884,1.4881,1.4869,1.4863,1.4871,1.4859,1.4866,1.4866,1.4867,1.4866,1.4894,1.4867,1.4867,1.4867,1.4867,0,1.495,1.4952,1.4938,1.4938,1.4941,1.4929,1.4932,1.4925,1.4918,1.4918,1.4905,1.4905,1.4891,1.4889,1.488,1.4881,1.488,1.4876,1.4873,1.4876,1.4877,1.4873,1.4872,1.4868,1.4868,1.4868,1.4868,0,1.4972,1.4962,1.4963,1.4952,1.4949,1.4952,1.4942,1.4943,1.4935,1.4935,1.4934,1.4922,1.4919,1.4908,1.4903,1.4897,1.4901,1.4896,1.4903,1.4901,1.4909,1.4908,1.4934,1.4937,1.4909,1.491,1.491,0,1.4983,1.4985,1.4974,1.4973,1.4969,1.4968,1.4965,1.4954,1.4952,1.4944,1.4946,1.4942,1.4939,1.4935,1.4926,1.4922,1.4917,1.4926,1.4916,1.4919,1.4916,1.4916,1.4916,1.4928,1.4928,1.4929,1.4929,0,1.5003,1.4999,1.4996,1.4992,1.499,1.4986,1.4982,1.4982,1.4969,1.4968,1.4965,1.4962,1.4958,1.4954,1.4949,1.4944,1.4934,1.4933,1.4934,1.4936,1.494,1.4938,1.4908,1.4932,1.4931,1.4931,1.4931,1.4931,1.5019,1.502,1.5014,1.5011,1.5007,1.5004,1.5004,1.4997,1.4995,1.499,1.4984,1.4982,1.4976,1.4968,1.4964,1.4962,1.4957,1.4959,1.4959,1.4959,1.4961,1.4942,1.4961,1.4961,1.4961,1.4961,1.4961,0,1.5038,1.5034,1.5032,1.5027,1.5025,1.5018,1.5013,1.5012,1.5011,1.5006,1.5003,1.5001,1.4998,1.4989,1.4986,1.4986,1.4982,1.4986,1.4985,1.4984,1.4966,1.4965,1.4989,1.4989,1.4989,1.4989,1.4989,1.4989,1.5048,1.5049,1.5045,1.5044,1.504,1.5038,1.5036,1.5033,1.5029,1.5027,1.5025,1.502,1.5013,1.501,1.5007,1.5004,1.5003,1.5008,1.5004,1.4988,1.4985,1.4982,1.4981,1.5008,1.5008,1.5022,1.5022,1.5022]},{"header":{"parameterUnit":"m.s-1","parameterCategory":1,"la1":30.2991,"la2":30.254,"lo1":-89.0895,"lo2":-89.0444,"dy":0.0017,"dx":0.0017,"nx":28,"ny":28,"refTime":"2025-12-30T03:00:00:Z","depth":0,"parameterNumber":3,"parameterNumberName":"V-component_of_WINDS"},"data":[0,0,0,0,0,0,0,0,0,0,0,0,0,0,0,0,0,0,0,0,0,0,0,0,0,0,0,0,0,0,0,0,0,0,0,0,0,0,0,0,0,0,0,0,0,0,0,0,0,0,0,0,0,0,0,0,0,0,-6.2688,-6.269,0,-6.2902,-6.2905,-6.2907,-6.2852,-6.2848,-6.2844,-6.284,-6.3056,-6.3066,-6.3075,0,0,0,0,0,0,0,0,0,0,0,0,0,-6.2227,-6.2236,-6.2688,-6.269,-6.2693,-6.2902,-6.2905,-6.2908,-6.2853,-6.2848,-6.2843,-6.2838,-6.3053,-6.3064,-6.3076,0,0,0,0,0,0,0,0,0,0,0,0,0,-6.2433,-6.2239,-6.2687,-6.2691,-6.2693,-6.2901,-6.2905,-6.2909,-6.2854,-6.2848,-6.2841,-6.2836,-6.3049,-6.3063,-6.3078,-6.3294,0,0,-6.3122,-6.3128,0,0,0,0,0,0,0,0,-6.2421,-6.245,-6.2688,-6.2691,-6.2694,-6.2844,-6.2822,-6.3038,-6.2856,-6.2793,-6.284,-6.2832,-6.299,-6.3009,-6.3063,-6.3304,-6.3313,-6.3123,-6.3132,-6.3138,-6.3142,0,0,0,0,0,0,0,-6.2407,-6.244,-6.2772,-6.2691,-6.2695,-6.2681,-6.2703,-6.2862,-6.2924,-6.2798,-6.2795,-6.2821,-6.2991,-6.305,-6.3068,-6.3316,-6.3123,-6.3136,-6.3145,-6.315,-6.3745,-6.3751,0,0,0,0,0,0,-6.2391,-6.2429,-6.2766,-6.2779,-6.254,-6.2694,-6.2719,-6.2802,-6.2923,-6.2935,-6.2826,-6.2818,-6.3028,-6.3051,-6.3076,-6.3337,-6.3138,-6.3152,-6.316,-6.3738,-6.3746,-6.3754,0,0,0,0,0,0,-6.2381,-6.2421,-6.2757,-6.2603,-6.2645,-6.2709,-6.2803,-6.281,-6.2868,-6.2944,-6.2954,-6.2875,-6.3024,-6.3055,-6.324,-6.3344,-6.3158,-6.3172,-6.3729,-6.374,-6.375,-6.3861,0,0,0,0,0,0,-6.2368,-6.2418,-6.2502,-6.2606,-6.2653,-6.292,-6.2809,-6.2819,-6.2894,-6.2885,-6.2992,-6.3004,-6.3021,-6.3219,-6.3255,-6.336,-6.3183,-6.372,-6.3734,-6.3747,-6.3849,-6.3874,-6.3896,0,0,0,0,0,-6.2352,-6.2524,-6.2507,-6.2547,-6.2759,-6.2926,-6.2953,-6.297,-6.2903,-6.2987,-6.3035,-6.3001,-6.3326,-6.3238,-6.3278,-6.339,-6.3714,-6.373,-6.3746,-6.3838,-6.3869,-6.3896,0,0,0,0,0,0,-6.243,-6.2538,-6.2519,-6.273,-6.2819,-6.2916,-6.3023,-6.3003,-6.3112,-6.3099,-6.3114,-6.3139,-6.3328,-6.3377,-6.3277,-6.3605,-6.351,-6.3535,-6.3566,-6.3597,-6.362,-6.3605,-6.3195,0,0,0,0,0,-6.2472,-6.2599,-6.2686,-6.2863,-6.2909,-6.2958,-6.3031,-6.3037,-6.313,-6.3167,-6.3228,-6.3319,-6.3441,-6.3521,-6.3638,-6.3855,-6.3877,-6.3951,-6.3975,-6.3994,-6.4015,-6.4133,-6.4167,-6.3806,-6.3806,-6.3806,0,0,-6.2559,-6.2634,-6.2713,-6.2881,-6.295,-6.3081,-6.299,-6.3132,-6.3229,-6.3188,-6.3367,-6.3415,-6.3517,-6.3719,-6.3811,-6.3765,-6.412,-6.4014,-6.4029,-6.404,-6.4153,-6.4187,-6.4218,-6.3817,-6.3815,-6.3813,0,0,-6.2786,-6.2855,-6.3011,-6.3083,-6.319,-6.3221,-6.3259,-6.3359,-6.339,-6.357,-6.3542,-6.3656,-6.3867,-6.3941,-6.4006,-6.426,-6.4232,-6.4297,-6.4422,-6.4537,-6.4565,-6.4591,-6.4682,-6.4714,-6.4318,-6.4318,-6.4319,0,-6.2881,-6.3077,-6.3093,-6.3238,-6.3312,-6.3282,-6.3439,-6.3508,-6.3647,-6.3699,-6.3646,-6.391,-6.3976,-6.4195,-6.4257,-6.4311,-6.4353,-6.4286,-6.456,-6.4586,-6.461,-6.4696,-6.473,-6.4326,-6.4325,-6.4324,-6.4323,0,-6.3189,-6.3325,-6.3438,-6.3575,-6.3662,-6.3812,-6.385,-6.3936,-6.3934,-6.3971,-6.4154,-6.4232,-6.4365,-6.4417,-6.4416,-6.4636,-6.4604,-6.4556,-6.4461,-6.4651,-6.4733,-6.4766,-6.4336,-6.4334,-6.4331,-6.433,0,0,-6.3471,-6.3615,-6.3656,-6.3717,-6.3833,-6.3939,-6.4087,-6.4218,-6.4291,-6.4388,-6.4512,-6.4691,-6.4648,-6.4721,-6.4728,-6.4829,-6.5025,-6.4768,-6.4771,-6.4814,-6.5273,-6.5309,-6.5347,-6.5007,-6.5014,-6.5019,-6.5264,0,-6.3708,-6.3971,-6.3989,-6.4226,-6.4352,-6.4325,-6.4454,-6.4539,-6.4577,-6.4689,-6.473,-6.4858,-6.479,-6.4834,-6.4933,-6.4981,-6.5118,-6.4963,-6.5123,-6.5128,-6.5099,-6.539,-6.5428,-6.5656,-6.5296,-6.5302,-6.5305,0,-6.402,-6.4127,-6.4377,-6.4476,-6.4529,-6.4645,-6.4766,-6.4874,-6.4968,-6.4989,-6.5072,-6.5064,-6.5216,-6.5115,-6.5323,-6.5218,-6.5284,-6.5317,-6.5326,-6.5342,-6.5229,-6.5414,-6.5729,-6.5763,-6.5356,-6.5352,-6.5348,0,-6.4201,-6.4408,-6.4585,-6.4638,-6.4757,-6.4839,-6.4892,-6.4981,-6.5058,-6.5163,-6.5213,-6.5334,-6.5401,-6.5494,-6.5519,-6.5444,-6.5727,-6.5628,-6.5748,-6.5748,-6.5809,-6.5805,-6.614,-6.5851,-6.5851,-6.585,-6.5849,0,-6.4464,-6.4618,-6.4668,-6.4776,-6.4948,-6.4967,-6.5136,-6.5183,-6.5263,-6.5379,-6.5362,-6.5472,-6.5498,-6.5613,-6.5633,-6.5802,-6.5832,-6.5852,-6.5856,-6.5855,-6.5852,-6.5898,-6.5883,-6.5859,-6.5857,-6.5855,-6.5854,0,-6.4695,-6.4735,-6.4926,-6.5023,-6.5051,-6.5173,-6.5255,-6.5359,-6.5395,-6.5543,-6.5578,-6.5635,-6.5768,-6.5803,-6.5962,-6.5975,-6.6175,-6.6164,-6.6144,-6.6144,-6.6262,-6.625,-6.6638,-6.669,-6.6367,-6.637,-6.6373,0,-6.4861,-6.4979,-6.5089,-6.5167,-6.5224,-6.5349,-6.5428,-6.545,-6.5533,-6.565,-6.574,-6.5872,-6.5978,-6.6193,-6.6247,-6.6369,-6.636,-6.6488,-6.6378,-6.6373,-6.6363,-6.6356,-6.6367,-6.6509,-6.6512,-6.6515,-6.6517,0,-6.5151,-6.5165,-6.528,-6.5403,-6.5498,-6.5595,-6.5688,-6.5752,-6.5787,-6.5881,-6.6019,-6.6102,-6.6265,-6.6396,-6.6518,-6.6571,-6.6551,-6.6551,-6.6586,-6.6585,-6.6569,-6.658,-6.6201,-6.6542,-6.654,-6.6538,-6.6537,-6.6536,-6.5355,-6.5459,-6.5553,-6.5682,-6.5754,-6.5841,-6.5944,-6.5993,-6.6108,-6.6244,-6.625,-6.6399,-6.649,-6.6653,-6.6713,-6.6829,-6.679,-6.6839,-6.6852,-6.6864,-6.6875,-6.6551,-6.6851,-6.685,-6.685,-6.6849,-6.6849,0,-6.5644,-6.5703,-6.5822,-6.5953,-6.6054,-6.6027,-6.6128,-6.6215,-6.6347,-6.6434,-6.6539,-6.6697,-6.6824,-6.6888,-6.7014,-6.7094,-6.7088,-6.7126,-6.7121,-6.7133,-6.6902,-6.686,-6.7129,-6.7129,-6.7129,-6.7129,-6.7129,-6.7129,-6.5807,-6.5981,-6.6006,-6.6216,-6.6273,-6.6421,-6.6481,-6.6561,-6.6631,-6.6808,-6.6914,-6.6955,-6.7033,-6.7164,-6.7279,-6.7294,-6.7341,-6.7385,-6.7396,-6.7178,-6.715,-6.7122,-6.7083,-6.7395,-6.7395,-6.7618,-6.762,-6.7621]}]]